RH
100 100 100 100 86 93 97 94 79 82 82 77 74 68 69 77 93 100 100 97 86 77 98 100 99 86 96 84 54 35 31 33
100 100 100 76 89 90 77 70 79 78 76 72 77 95 100 100 100 100 77 70 95 90 100 84 95 85 65 37 32 32 36 34
100 100 89 67 78 89 86 90 97 95 100 100 100 100 100 100 97 86 85 90 100 100 96 76 51 35 33 33 36 36 33 33
100 100 100 100 100 100 100 100 100 100 100 100 100 100 100 96 72 85 100 100 77 54 43 36 33 33 36 37 35 35 37 38
98 100 100 100 100 100 100 100 100 100 100 100 100 94 65 64 98 78 57 43 37 34 36 37 38 39 38 36 35 35 38 44
95 98 100 100 100 100 93 100 100 100 100 100 100 92 76 81 62 44 41 36 36 38 39 39 40 36 35 40 47 54 55 57
96 100 100 96 94 97 98 98 100 92 77 75 66 60 64 61 38 37 37 38 40 40 42 42 34 39 41 47 50 55 63 62
100 100 99 98 94 95 98 89 60 59 51 57 76 86 93 48 40 44 47 47 45 44 41 33 35 43 52 53 62 67 64 57
76 72 100 100 100 92 77 70 55 80 98 100 100 100 46 44 48 49 50 45 41 36 35 36 46 43 48 55 54 56 56 58
72 69 78 75 70 81 91 100 100 100 100 99 76 43 46 49 49 47 45 40 37 40 38 52 51 51 52 56 58 61 62 63
89 87 80 75 75 82 88 100 100 80 66 48 40 46 48 49 48 49 46 49 46 43 49 50 52 58 60 67 72 67 62 52
73 72 72 65 60 56 77 67 37 31 36 41 47 48 50 54 56 52 49 38 45 47 57 62 65 69 75 73 64 63 59 68
51 49 48 48 41 79 69 27 33 41 44 50 54 56 60 53 47 36 38 52 59 63 64 68 72 71 67 66 66 67 76 74
39 26 21 25 28 74 59 49 47 50 49 58 56 55 55 52 47 54 58 64 64 64 62 65 63 67 68 68 78 75 72 74
22 26 31 45 62 76 85 92 77 66 84 72 64 62 62 52 57 62 64 63 70 66 63 65 72 72 80 87 80 74 82 82
26 29 48 48 62 84 89 78 86 88 82 91 84 70 69 70 62 62 66 73 65 59 68 78 79 84 90 90 78 79 79 86
25 33 44 68 82 84 78 82 82 85 89 86 81 72 70 65 70 70 76 62 59 74 83 87 81 92 99 82 75 78 86 70
48 53 60 73 78 82 88 87 98 98 91 92 79 74 73 79 81 79 67 67 79 86 90 81 94 100 90 78 76 83 78 46
65 72 80 91 93 94 98 100 97 97 88 72 72 82 90 83 78 74 74 79 82 89 82 94 99 94 83 83 85 80 52 36
Wind_Speed
38 36 27 32 32 34 33 37 40 48 43 41 44 45 57 68 67 65 62 65 68 71 72 70 71 74 73 74 73 71 72 74
30 33 32 27 29 33 37 36 37 39 44 48 46 53 60 63 65 65 67 70 70 69 68 69 72 69 70 70 70 72 74 77
33 33 31 32 35 36 33 38 41 41 47 54 58 64 61 63 63 62 64 64 66 68 67 66 67 66 67 70 71 74 78 79
25 27 33 36 35 40 42 44 44 47 50 54 59 60 63 56 57 58 61 60 60 63 61 62 63 66 71 73 78 79 77 77
34 33 32 37 43 44 43 43 46 50 49 52 53 54 52 54 55 55 57 57 58 58 58 63 67 71 74 74 72 74 78 77
44 43 46 46 44 44 48 45 44 46 43 44 50 54 56 49 53 59 59 57 56 59 62 66 71 71 72 75 76 76 75 77
44 45 47 50 54 43 43 43 40 42 44 49 56 59 54 55 57 55 55 56 60 63 66 69 70 73 74 74 73 73 77 80
32 31 31 30 35 39 42 43 43 50 50 53 53 52 53 57 54 54 58 61 64 68 71 71 73 73 72 70 73 77 81 83
35 38 37 38 42 44 48 49 50 45 43 42 44 53 54 50 54 58 62 66 69 70 71 72 72 67 71 76 79 82 84 90
43 42 44 48 49 53 49 40 41 43 45 48 51 50 50 54 57 61 65 67 68 71 71 72 71 76 78 81 81 85 90 95
38 40 41 42 44 46 45 43 45 47 48 50 48 48 52 56 60 61 64 67 69 70 71 74 78 82 83 83 88 91 96 102
40 41 39 39 39 41 42 46 47 46 44 45 48 51 54 57 61 64 66 67 68 71 77 81 83 85 85 90 93 98 103 107
36 38 38 38 37 36 42 43 40 40 44 47 51 53 56 60 62 65 64 69 72 76 79 82 85 87 91 95 98 104 108 109
37 37 34 33 31 30 37 38 40 44 46 50 53 56 58 60 64 67 71 74 76 79 81 83 86 91 95 98 104 108 109 112
38 38 32 26 26 30 37 41 43 47 51 56 58 59 62 63 66 70 73 75 79 82 83 87 92 97 99 102 107 111 112 113
35 32 29 29 30 35 41 44 47 52 55 58 62 64 65 68 71 73 74 78 81 85 89 94 98 101 101 106 112 113 114 115
33 33 32 31 34 38 43 47 50 54 58 61 65 68 71 73 74 76 79 81 85 90 94 99 103 103 105 113 113 114 115 119
35 36 37 39 43 45 49 52 55 59 62 65 68 72 74 75 78 80 82 86 91 95 99 102 105 106 112 115 116 115 118 119
37 40 42 45 48 51 53 56 60 63 66 69 71 73 75 78 81 83 87 92 96 100 103 105 106 112 115 118 117 118 120 120
Wind_Direction
214 215 227 221 234 232 233 246 255 248 245 256 259 261 261 262 268 271 279 285 287 285 286 288 289 289 291 294 295 296 298 298
214 232 233 234 247 254 258 259 265 262 261 265 266 261 262 265 268 274 282 282 282 285 285 287 289 291 293 295 298 297 295 295
232 230 242 247 251 253 254 259 255 260 258 258 261 261 268 269 276 280 282 281 283 284 288 291 294 296 297 299 297 294 296 298
224 238 247 251 252 253 254 257 260 255 260 260 264 267 271 275 280 281 283 284 285 289 292 294 296 298 299 296 296 297 298 298
233 237 248 250 247 254 262 263 261 267 267 270 273 276 278 280 279 283 287 288 290 292 294 296 298 297 296 296 296 298 301 302
239 241 249 259 259 261 265 263 267 270 276 276 280 285 290 286 288 289 289 289 291 295 296 295 294 296 297 301 303 302 302 303
249 250 253 257 262 260 257 259 262 271 273 278 284 285 287 287 287 288 289 293 295 294 293 293 295 298 299 301 302 303 303 302
240 242 246 253 259 267 262 261 268 272 279 282 279 280 282 289 288 291 294 293 291 291 292 295 298 300 301 302 303 304 302 302
262 256 257 263 269 276 276 276 280 282 281 274 273 281 285 286 290 292 290 290 290 292 295 297 298 300 302 302 304 303 304 305
267 266 265 264 268 275 281 278 273 268 272 277 281 280 286 290 291 290 289 291 294 296 296 301 302 304 304 304 305 308 309 309
264 263 262 263 264 267 271 267 267 271 275 274 277 285 289 290 289 289 291 294 294 295 301 303 303 305 307 307 309 310 309 310
258 260 261 261 263 268 266 265 267 270 272 279 284 288 289 289 289 290 291 291 298 302 303 303 306 308 308 310 311 310 310 310
258 257 257 259 263 263 264 268 272 276 280 282 284 286 287 288 291 291 295 300 301 301 302 306 307 308 310 311 312 312 311 311
267 268 270 275 267 255 266 270 275 280 285 287 287 288 292 294 295 299 300 301 301 303 306 306 308 310 312 312 312 312 311 311
277 281 280 269 268 267 268 273 275 289 288 289 292 293 294 296 298 298 298 301 303 305 306 308 311 313 312 312 312 311 312 312
276 269 262 264 266 265 269 277 281 285 287 290 292 294 297 297 297 298 301 303 304 305 309 312 313 311 310 312 311 312 312 313
269 270 271 270 267 273 282 283 284 287 290 292 294 295 295 295 298 301 302 304 306 308 311 311 311 310 311 311 312 313 313 313
276 279 281 281 282 283 284 286 287 288 290 291 292 293 295 299 300 301 303 306 307 309 310 310 311 311 311 312 313 313 314 314
275 276 277 277 278 280 281 283 285 287 289 291 294 295 296 298 301 304 306 306 308 310 310 311 312 310 312 313 313 313 315 315